Simultaneous Nadir Overpasses (SNOs) Predictions

Prediction of SNOs between AQUA and METOP-B Satellite Orbit:

Table of predicted SNOs for the next 14.0 days since TLE Epoch: 10/27/2012
Index Date (AQUA) Time (AQUA) AQUA Lat,Lon Date (METOP-B) Time (METOP-B) METOP-B Lat,Lon Distance(km) Time Diff (sec)
1 10/27/2012 03:52:12 73.81, 116.13 10/27/2012 03:52:22 73.80, 116.10 1.22 10
2 10/27/2012 04:41:46 -74.26, -77.24 10/27/2012 04:42:55 -74.22, -75.54 51.65 69
3 10/29/2012 22:36:53 -73.75, 15.09 10/29/2012 22:36:11 -73.76, 15.06 1.70 42
4 10/29/2012 23:26:22 73.82,-177.44 10/29/2012 23:26:50 73.81,-177.49 2.14 28
5 11/01/2012 18:11:01 -73.77, 81.52 11/01/2012 18:10:40 -73.79, 81.53 3.01 21
6 11/01/2012 19:00:30 73.85,-111.03 11/01/2012 19:01:19 73.84,-111.02 1.26 49
7 11/04/2012 12:55:39 73.73, -19.56 11/04/2012 12:54:30 73.71, -19.62 3.12 69
8 11/04/2012 13:45:06 -73.80, 147.91 11/04/2012 13:45:10 -73.81, 147.95 0.98 4
9 11/04/2012 14:34:35 73.89, -44.65 11/04/2012 14:35:48 73.90, -44.51 4.38 73
10 11/07/2012 08:29:42 73.73, 46.92 11/07/2012 08:29:02 73.73, 46.82 2.92 40
11 11/07/2012 09:19:09 -73.81,-145.60 11/07/2012 09:19:43 -73.79,-145.71 3.69 34




NCC Satellite Simultaneous Nadir Overpasses (SNOs) Prediction Service
